{"data":{"norad_id":59291,"intl_designator":"2024-053D","name":"AEROCUBE 16B","alt_names":[],"object_type":"PAYLOAD","status":"ACTIVE","operator":null,"country":"US","launch_date":"2024-03-21","launch_site_code":"WLPIS","launch_vehicle":null,"mission":null,"orbit_class":"UNKNOWN","rcs_meters":null,"size_class":null,"mass_kg":null,"dimensions":null,"purposes":[],"wikipedia_slug":null,"has_3d_model":false,"image_url":null,"decayed_at":null,"tle_current":{"epoch":"2026-05-25T04:35:34.559808Z","epoch_age_seconds":62003,"freshness":"FRESH","line1":"1 59291U 24053D   26145.19137222  .00014728  00000+0  33652-3 0  9998","line2":"2 59291  49.9906  81.8093 0001963 233.1252 126.9531 15.43019122117634","mean_motion":15.43019122,"eccentricity":0.0001963,"inclination_deg":49.9906,"raan_deg":81.8093,"arg_perigee_deg":233.1252,"mean_anomaly_deg":126.9531,"bstar":0.00033652,"rev_number":11763,"period_min":93.323535623689,"perigee_km":435.86686434525,"apogee_km":438.54256750292,"semimajor_km":6815.3417159241,"source":"CELESTRAK","updated_at":"2026-05-25T13:38:01.314543Z"}}}